Reflectivity
24 12 8 -11 -9 -20 -20 -20 -20 -20 -20 -20 -20 -20 -20 -20 -20 -20 -20 -20 -20 -7 -20 -20 -20 -20 -20 -20 -20 -20 -16 -20 -11 -20 -20 -20 -20 -20 -20 -20 -20 -20 -20 -20 -20 -16 -20 -20 8 10 -16 -20 -20 -20
23 23 4 14 -8 -20 7 -20 -20 -20 -20 -20 -20 -20 -20 -20 -20 -20 -20 -20 -20 -20 -20 -20 -20 -20 -20 -20 -20 -20 -20 -20 -20 -20 -20 -20 -20 -20 -20 -20 -20 -20 -20 -20 -20 -20 -20 -5 8 -20 -20 -20 -20 -20
26 15 5 -2 -3 -20 7 1 9 -16 -20 -20 -20 -20 -20 -20 -20 -20 -20 -20 -20 8 -20 -20 -20 -20 -20 -20 -20 -15 -20 -1 8 -20 -20 -18 -18 -17 -15 5 18 25 -19 -20 -16 -20 -20 -20 -20 -20 -20 -20 -20 3
32 28 23 12 2 -4 6 10 4 -0 8 -10 -20 -20 -20 -20 -20 -20 -20 -20 -20 -10 9 -20 -20 -20 -6 -20 -20 -20 -20 -12 3 -12 10 22 28 23 21 5 -9 -1 8 -0 -20 -20 -19 -20 -14 -15 21 -14 -20 -17
21 22 27 24 25 24 8 -4 -20 -20 2 9 -10 -20 -20 -20 -20 -13 -20 -20 -20 -12 -13 -20 -20 -20 -11 6 8 -3 -20 9 17 7 12 9 -8 9 -1 -19 3 -1 -16 -13 -20 -16 13 -1 -4 16 -4 -14 19 20
14 2 16 16 12 16 24 26 2 5 11 9 3 -20 -20 -20 -20 -20 -20 -20 -20 -20 19 -7 -20 -20 -20 -20 -20 -20 -20 -20 -1 -10 -8 -20 -20 -13 11 23 -11 -14 -20 -20 21 28 10 11 -9 -20 -7 19 16 12
-20 -4 4 -18 -10 -9 6 19 16 12 -20 -6 -5 -18 -14 -14 -7 -20 1 -15 -19 8 18 24 1 -20 -20 -20 -20 -20 -16 -20 -20 -17 -8 0 -0 20 25 7 -20 -20 -20 -9 24 13 7 -12 -17 17 26 17 -4 -18
-20 -6 -14 -20 -20 -20 -20 -7 -15 -15 -20 -3 13 21 21 29 28 22 23 18 20 18 22 31 22 -7 1 -7 -20 -20 -20 -6 -20 -20 -20 -18 -2 14 10 -20 -20 -20 -0 8 26 -8 -20 5 7 17 12 -2 0 -16
-20 -10 -20 -20 -20 -20 -20 -0 7 11 13 12 16 27 25 19 19 18 22 8 24 19 32 21 19 2 6 -4 -3 -7 -20 -20 -20 -20 -20 -20 -20 -15 -20 -20 -20 -20 -20 -16 -15 -15 -9 13 -5 19 16 6 -17 -20
-20 -20 -20 -20 -20 -20 -20 7 5 4 11 16 2 -15 4 6 21 22 35 36 34 35 25 9 2 -5 -11 6 -1 7 24 26 3 -20 -20 -18 -20 -20 -20 -20 -20 -20 -20 -20 -20 -20 18 29 18 -10 -20 -20 -20 -20
-20 -20 -20 -20 -20 -20 -20 -19 -10 5 3 -10 -11 -4 8 20 5 11 23 9 9 2 6 -11 -19 -20 -2 -9 15 18 16 13 -17 -20 -18 -20 -20 -20 -20 -20 -20 -20 -20 -20 -3 -3 -4 -20 -20 -20 -20 -20 -20 -20
-20 -20 -20 -20 -20 -20 -20 -18 5 -2 -4 4 0 15 -8 -8 -6 -7 -3 -9 -18 -20 -15 -20 -18 -5 14 14 22 23 -14 0 -19 -20 -19 -20 -20 -20 -20 -20 -20 6 12 -20 -20 -17 -7 14 10 -16 -20 -20 -20 -20
-20 -20 -20 -20 -20 -20 -15 3 -17 -20 -18 -19 -16 -15 -17 -9 -20 -20 -20 -20 -20 -20 3 -12 -16 -2 1 -13 16 -16 -20 -20 -20 -20 -20 -20 -20 -20 12 14 -12 -5 -9 -12 8 18 13 -2 -19 -20 -20 -20 -20 -20
3 12 3 -20 -20 -20 -20 2 -11 -20 -20 -20 -20 -20 -20 -20 -20 -20 -20 -20 -18 -18 7 19 9 -20 -20 -20 -20 -20 -20 -20 -1 -17 -20 -20 -20 -20 -3 -2 -20 -20 -20 -20 -20 -20 -20 -20 -20 -20 -20 -20 -20 -20
3 -3 -4 -20 -20 -20 -20 -20 -20 -20 -20 -20 -20 -20 -20 -20 -20 -20 7 -14 1 -5 -20 -20 -20 -20 -20 -20 -20 -20 -20 -20 -20 -20 -20 -20 -20 -20 -20 -20 -20 -20 -20 -20 -20 -20 -20 -20 -20 -20 -20 -20 -20 -20
5 10 3 5 -16 -2 -4 -1 -20 -20 -20 -20 -20 -20 -20 -20 -20 -8 -20 -20 -20 -20 -20 -20 -20 -20 -20 -20 -20 -20 -20 -20 -20 -20 -20 -20 -20 -20 -20 -20 -20 -20 -20 -20 -20 -20 -20 -20 -20 -20 -20 -20 -20 -20
-10 9 22 29 20 -17 -12 -20 -20 -20 -20 -20 -20 -20 -20 -20 -20 -20 -20 -20 -20 -20 -20 -20 -20 -20 -20 -20 -20 -20 -20 -20 -20 -20 -20 -20 -20 -20 -20 -20 -20 -20 -20 -20 -20 -20 -20 -20 -20 -20 -20 -8 -20 -20
-3 13 6 -6 -17 -5 -11 -20 -20 -20 -20 -20 -20 -20 -20 -20 -20 -20 -20 -20 -16 -20 -20 -20 -20 -20 -20 -20 -20 -20 -20 -20 -20 -20 -20 -20 -20 -20 -20 -20 -20 -20 -20 -20 -20 -20 -20 -20 -20 -20 -14 -20 -16 -20
-18 -8 -1 -15 -17 -20 -13 -12 -20 -20 -20 -20 -20 -20 -20 -20 -20 -20 -20 -20 -20 -20 -20 -20 -20 -20 -20 -20 -20 -20 -20 -20 -20 -20 -20 -20 -20 -20 -20 -20 -20 -20 -20 -20 -20 -20 -20 -20 -12 -20 -15 -0 -17 -8
10 8 4 9 -20 -20 -20 -20 -20 -20 -20 -20 -20 -20 -20 -20 -20 -20 -20 -20 -20 -20 -20 -14 -20 -20 -20 -20 -20 -20 -20 -20 -20 -20 -20 -20 -20 -20 -20 -20 -20 -20 -20 -20 -20 -20 -20 -20 -20 -20 -9 -3 -6 6
10 25 22 -20 -20 -20 -20 -20 -20 -20 -20 -20 -20 -20 -20 -20 -20 -20 -20 -20 -20 -19 -20 -20 -20 -20 -20 -20 -20 -20 -20 -20 -20 -20 -20 -20 -20 -20 -20 -20 -20 -20 -20 -20 -20 -20 -20 -20 -19 -2 -9 -17 5 14
17 8 5 -20 -20 -20 -20 -20 -20 -20 -20 -20 -20 -20 -20 -20 -20 -20 -20 -20 -20 -20 -20 -20 -20 -20 -20 -20 -20 -20 -20 -20 -20 -20 -20 -20 -20 -20 -20 -20 -20 -20 -20 -20 -20 -20 -19 -8 12 3 -1 -16 -4 4
-13 -20 -20 -20 -20 -20 -20 -20 -20 -20 -20 -20 -20 -20 -20 -20 -20 -20 -20 -20 -20 -20 -20 -20 -20 -20 -20 -20 -20 -20 -20 -20 -20 -20 -20 -20 -20 -20 -20 -20 -20 -20 -20 -20 -20 -20 -5 14 7 12 -11 -20 -20 -20
-20 -20 -20 -20 -20 -20 -20 -20 -20 -20 -20 -20 -20 -20 -20 -20 -20 -20 -20 -20 -20 -20 -20 -20 -20 -20 -20 -20 -20 -20 -20 -20 -20 -20 -20 -20 -20 -20 -20 -20 -20 -20 -20 -19 -19 -4 -1 5 8 -15 -16 -20 -20 -20
-20 -20 -20 -20 -20 -20 -20 -20 -20 -20 -20 -20 -20 -20 -20 -20 -20 -20 -20 -20 -20 -20 -20 -20 -20 -20 -20 -20 -20 -20 -20 -20 -20 -20 -20 -20 -20 -20 -20 -20 -20 -20 -20 -20 -20 -10 -11 9 7 5 -6 -20 -20 -20
-20 -20 -20 -20 -20 -20 -20 -20 -20 -20 -20 -20 -20 -20 -20 -20 -20 -20 -20 -20 -20 -20 -20 -20 -20 -20 -20 -20 -20 -20 -20 -20 -20 -20 -20 -20 -20 -20 -20 -20 -20 -20 -20 -17 -17 -20 -8 -20 -20 -20 -20 -20 -20 -20
-20 -20 -20 -20 -20 -20 -20 -20 -20 -20 -20 -20 -20 -20 -20 -20 -20 -20 -20 -20 -20 -20 -20 -20 -20 -20 -20 -20 -20 -20 -20 -20 -20 -20 -20 -20 -20 -20 -20 -20 -7 -20 -20 -16 -17 -20 -19 -12 -19 -20 -20 -17 -16 -20
-20 -20 -20 -20 -20 -20 -20 -20 -20 -20 -20 -20 -20 -20 -20 -20 -20 -20 -20 -20 -20 -20 -20 -20 -20 -20 -20 -20 -20 -20 -20 -20 -19 -20 -20 -20 -20 -20 -20 -20 -20 -20 -20 -20 -17 -19 -20 -14 -16 -20 -15 -19 -20 -20
-20 -20 -20 -20 -17 5 10 -12 -20 -20 -20 -20 -20 -20 -20 -20 -20 -20 -20 -20 -20 -20 -20 -20 -20 -20 -20 -20 -20 -20 -20 -20 -20 -20 -20 -18 -20 -20 -20 -20 -20 -20 -19 -17 -20 -5 8 8 -12 -13 -3 9 8 11
-14 6 12 10 -4 -8 -20 -20 -20 -20 -20 3 -20 -20 -20 -20 -20 -20 -20 -20 -20 -20 -20 -20 -20 -20 -20 -20 -20 -20 -20 -20 -20 -14 -20 -20 -20 -20 -20 -20 -20 -20 -10 -5 -20 -20 -20 -20 -20 -12 11 14 17 11
-20 -20 -20 -20 -20 -20 -20 -20 -20 -20 -20 -20 -20 -20 -20 -20 -20 -20 -20 -20 -20 -20 -20 -20 -20 -20 -20 -20 -19 -20 -20 -20 -20 -20 -20 -20 -20 -20 -20 -20 -20 -20 -20 -20 -20 -20 -20 -20 -20 -19 -5 5 7 10
-20 -20 -20 -16 -2 -20 -20 -20 -20 -14 -20 -20 -12 -20 -20 -20 -20 -20 -20 -20 -20 -20 -18 -17 -18 -20 -20 -20 -20 -20 -20 -20 -20 -20 -20 -20 -20 -20 -20 -20 -20 -20 -20 -20 -20 -20 -20 -20 -20 -20 -20 -20 -19 -11
-20 -20 -20 -20 -20 -20 -20 5 -20 -20 -20 -20 -20 -20 -20 -20 -5 -4 -19 -20 -18 -16 -18 -20 -19 -9 2 -4 -10 -20 -20 -20 -20 -20 -20 -20 -20 -20 -20 -20 -20 -20 -20 -20 -20 -20 -20 -20 -20 -20 -20 -20 -20 -20
Wind_Speed
6 10 13 15 15 14 13 12 12 11 9 8 7 4 3 2 5 3 1 2 5 3 5 1 2 2 2 2 5 4 5 4 3 2 4 4 4 6 1 5 6 6 4 5 2 4 10 4 3 2 8 3 13 13
4 7 11 14 15 14 14 13 12 11 11 10 9 8 6 5 2 2 2 3 2 4 4 1 4 2 3 5 6 2 4 5 6 4 2 2 4 2 5 8 1 3 9 6 11 9 4 4 9 6 8 12 6 2
3 4 7 11 14 14 15 12 12 11 10 10 9 9 9 8 6 3 2 1 5 3 4 2 6 4 3 5 4 4 4 4 4 4 5 4 5 4 6 6 4 5 3 5 6 8 10 9 15 14 6 1 3 4
5 5 5 7 9 12 14 14 13 10 9 9 10 10 10 9 8 5 2 2 4 3 4 7 1 6 4 6 7 6 6 2 1 3 4 4 3 6 5 6 8 7 6 6 15 17 19 16 10 4 4 2 1 7
5 7 8 7 7 8 8 10 11 12 11 11 9 9 10 10 9 3 0 2 3 4 4 4 5 6 5 4 7 7 4 4 2 1 2 4 2 2 3 1 5 8 15 7 15 14 11 13 1 0 3 2 6 11
4 6 7 8 8 4 6 8 8 7 9 10 10 10 10 10 11 3 2 4 5 3 1 2 3 3 3 3 8 8 6 4 4 4 4 3 4 5 5 5 7 11 12 16 13 17 10 3 9 9 5 3 6 10
3 5 8 9 10 8 6 4 8 10 10 10 9 10 12 13 5 3 5 2 4 3 3 4 3 3 3 2 2 2 1 3 4 3 4 4 4 4 2 9 20 7 9 14 14 9 2 5 2 4 9 8 8 5
6 6 7 9 11 10 9 7 4 7 10 10 9 9 8 11 8 1 2 3 3 4 3 3 2 4 1 1 2 3 1 2 2 2 1 2 1 1 6 19 6 7 9 7 5 9 4 6 2 6 6 5 6 6
7 8 7 7 9 10 10 9 6 7 11 12 13 16 6 3 2 1 6 8 2 3 3 3 4 3 1 1 1 3 1 1 1 1 2 2 1 6 7 4 6 7 4 7 9 8 7 6 7 8 10 9 6 8
9 8 7 7 7 9 11 11 15 18 18 18 3 4 2 3 8 7 3 2 3 3 3 2 2 3 3 2 0 0 1 2 2 3 1 3 6 9 16 16 9 6 7 7 9 7 7 4 6 6 9 8 6 7
10 9 8 8 8 8 9 9 8 4 6 2 3 3 0 1 1 3 1 1 0 1 1 2 3 2 3 3 2 1 1 1 2 4 3 2 3 4 7 8 7 7 9 9 7 7 6 4 5 8 9 8 7 8
12 11 11 9 9 10 9 8 3 3 2 4 6 5 3 2 3 1 2 0 3 4 3 3 2 2 1 1 2 2 2 2 5 1 1 3 3 5 9 9 8 8 6 3 2 7 7 6 7 8 8 8 8 6
13 13 12 10 10 9 10 7 5 5 3 4 5 4 3 1 2 5 6 3 3 2 3 1 1 1 2 3 1 3 1 6 1 1 3 4 3 3 4 2 2 2 3 3 4 7 8 7 8 6 8 8 7 6
12 13 12 11 11 10 8 7 7 6 5 4 4 3 4 2 3 3 3 2 1 1 2 3 2 2 1 3 1 3 4 2 2 3 6 3 2 2 2 3 5 7 7 7 10 9 9 9 10 9 8 7 5 9
13 14 13 10 11 11 8 6 6 4 3 3 4 4 4 2 2 1 1 2 1 1 2 3 3 2 1 2 2 1 4 3 4 6 3 3 3 3 5 6 6 6 8 8 7 7 9 9 8 12 10 6 6 6
19 12 3 14 12 10 10 5 5 3 3 4 3 3 1 3 2 1 1 1 1 1 2 3 2 3 4 4 3 6 5 7 5 3 3 2 4 6 7 7 8 8 8 9 9 10 11 9 11 13 8 6 6 9
11 2 13 14 13 13 11 4 3 4 4 3 2 2 3 2 3 3 2 3 2 3 2 3 4 10 1 2 3 5 6 5 4 3 3 5 6 6 7 7 7 7 10 11 11 11 11 10 6 8 8 10 6 8
4 9 17 17 10 6 3 3 4 4 2 3 3 4 2 3 3 2 3 1 3 2 3 4 3 2 5 6 5 5 3 3 3 4 3 3 5 7 6 8 10 9 10 12 11 11 10 9 8 9 9 6 8 6
10 12 17 14 5 5 3 1 3 3 5 3 1 1 2 2 2 2 2 0 1 2 3 3 1 5 5 3 4 4 3 1 2 7 9 7 6 8 9 9 8 9 10 11 11 10 9 9 9 10 6 5 6 2
19 18 17 7 3 4 3 2 1 3 2 4 2 1 3 3 2 2 3 2 2 1 4 4 6 5 5 4 3 3 4 4 2 5 10 8 5 7 8 7 8 9 9 10 8 7 6 9 5 6 5 6 3 2
8 8 10 4 3 4 4 2 1 3 1 1 2 3 2 2 2 3 3 2 2 3 3 7 7 8 5 5 4 4 6 5 7 6 9 10 8 4 5 6 6 5 6 8 9 9 9 8 9 5 7 4 2 3
4 9 3 3 3 4 3 2 4 2 3 2 2 2 1 1 2 3 3 3 3 6 6 6 9 7 6 6 9 6 8 8 8 7 7 7 7 7 5 4 1 6 8 7 8 9 10 7 7 5 3 3 2 3
9 4 3 2 4 3 5 2 3 1 2 3 3 2 3 2 4 2 1 4 5 6 8 7 8 7 10 11 7 7 8 9 8 7 6 6 6 4 4 4 3 8 10 9 6 8 8 9 7 5 3 3 2 2
5 4 4 4 4 3 1 2 1 1 3 2 3 3 4 5 1 2 4 4 7 2 3 7 5 6 4 5 5 7 7 3 4 4 4 3 4 3 3 5 6 7 7 8 8 8 7 6 2 1 2 2 3 3
7 2 4 4 2 3 4 1 2 3 4 4 3 4 5 2 3 3 5 7 4 4 6 5 3 5 6 6 3 5 5 4 3 5 4 3 2 3 5 6 5 7 7 8 7 8 3 2 3 3 3 3 5 5
3 7 9 8 3 5 6 5 6 8 4 3 6 4 2 4 2 7 5 4 4 4 4 4 4 2 3 5 4 3 4 3 3 1 3 3 3 4 7 9 10 8 4 4 6 8 8 5 6 6 5 6 7 6
4 6 4 3 4 3 1 2 0 4 6 6 5 2 3 3 7 7 4 3 3 4 4 3 4 4 5 5 5 5 2 4 5 4 3 4 5 6 6 8 10 6 5 7 7 8 9 7 7 8 7 6 7 7
6 4 8 5 3 2 5 2 5 7 6 4 4 4 8 10 8 5 5 4 4 3 3 3 4 4 5 4 2 2 2 3 4 3 2 2 4 2 3 4 5 10 8 7 7 7 6 6 7 8 8 8 7 6
3 2 4 5 1 3 5 7 7 6 5 5 6 5 7 5 4 3 4 3 2 2 4 5 4 2 3 3 3 3 3 3 3 8 9 6 2 5 3 5 6 6 6 6 7 7 7 6 7 7 8 7 5 3
5 4 4 4 7 8 7 7 5 5 3 6 3 3 3 4 5 3 2 2 1 5 4 3 2 2 2 2 3 3 1 2 2 2 1 2 4 5 4 4 5 5 5 5 4 4 6 4 5 2 2 3 4 5
2 3 1 3 6 6 8 4 2 1 1 4 5 7 10 7 3 4 4 4 3 2 2 1 1 3 3 3 2 1 1 3 4 4 2 2 3 4 5 5 4 3 3 3 3 3 4 4 4 4 5 5 6 5
1 5 4 6 8 5 0 3 5 5 5 2 8 2 2 1 4 2 5 5 5 5 6 6 5 4 5 3 2 3 5 2 2 3 5 3 3 4 4 4 5 5 3 3 4 4 4 4 3 3 2 4 5 7
2 2 3 3 5 4 5 0 4 5 2 5 9 8 6 5 3 2 2 6 4 3 4 4 4 4 6 3 4 4 3 3 5 5 5 5 5 5 4 4 5 5 4 3 4 4 6 7 6 8 9 9 8 8
Wind_Direction
190 193 193 187 185 184 187 190 188 184 182 181 182 192 159 101 34 55 268 8 115 124 278 303 314 183 68 107 144 235 47 350 61 116 144 213 184 235 265 219 195 182 173 226 217 221 270 173 44 131 240 270 302 314
215 202 192 187 184 184 184 185 191 190 183 183 182 179 183 172 129 54 84 337 73 118 227 275 261 262 259 197 146 222 196 174 181 107 207 137 206 199 192 259 251 227 197 207 192 215 235 233 290 223 285 305 321 340
178 182 193 187 181 180 197 183 184 188 188 185 189 182 178 178 183 95 135 153 60 61 321 4 247 264 220 197 165 141 294 210 199 180 151 211 220 137 220 227 204 262 251 235 351 261 265 298 289 294 303 324 8 323
102 124 153 152 168 176 184 187 185 186 190 191 186 179 181 179 173 154 155 181 87 104 155 272 6 247 233 199 192 190 215 220 155 132 162 179 210 198 210 232 211 200 192 232 258 267 278 270 268 288 101 54 268 247
93 96 100 108 137 150 172 179 179 173 182 200 192 183 178 184 163 138 107 236 178 151 206 261 306 254 243 219 228 212 199 227 167 275 179 234 213 178 209 114 205 199 245 229 254 264 261 288 334 92 93 344 18 344
101 101 83 82 83 102 196 186 181 184 183 185 183 183 180 168 141 103 320 221 203 163 142 283 272 260 276 261 235 240 218 206 189 167 224 241 219 146 238 243 222 231 232 246 267 273 275 341 61 38 69 244 268 267
129 97 101 101 98 92 88 155 185 193 193 188 182 178 174 162 162 166 193 164 179 105 105 299 297 299 328 296 328 309 30 221 187 218 214 202 208 202 213 261 262 251 268 272 252 268 119 78 97 25 8 297 289 259
155 141 123 107 94 85 71 63 97 179 176 171 167 171 160 137 104 112 335 34 81 97 100 225 287 336 291 12 341 346 13 354 291 251 22 219 19 168 256 260 301 259 278 297 107 88 115 74 65 267 264 289 308 296
167 167 144 109 93 84 81 66 80 139 150 141 129 111 82 44 101 153 118 77 38 127 180 135 168 217 3 69 37 2 35 296 316 253 245 133 205 228 242 273 282 284 242 146 109 107 85 25 347 336 322 327 305 291
165 163 153 133 127 111 96 93 76 77 109 117 70 73 55 302 109 128 2 44 30 345 35 179 141 219 158 130 350 167 40 266 291 249 290 217 260 294 289 275 279 105 97 99 83 55 45 284 287 308 298 293 279 275
170 159 151 134 121 119 117 117 83 45 153 85 72 79 156 93 21 35 52 107 53 301 189 225 205 152 353 137 166 175 202 255 258 280 232 266 277 278 356 60 70 72 76 75 91 164 200 219 321 303 298 302 297 287
167 157 148 139 125 118 119 126 52 54 59 114 117 103 76 53 51 138 177 183 195 221 180 192 213 160 32 66 102 170 205 204 252 247 74 283 289 354 47 56 61 61 65 57 356 348 321 293 277 282 278 282 279 271
164 158 148 137 125 117 122 107 65 113 105 47 53 72 96 22 86 164 195 200 223 213 182 145 110 102 38 45 90 95 135 231 344 198 239 224 276 44 61 81 110 159 252 263 281 244 244 272 281 263 272 272 275 275
161 144 139 135 129 125 116 94 74 58 66 74 106 115 162 188 244 197 187 160 215 117 94 85 82 118 149 67 124 214 253 18 271 216 225 236 281 345 0 342 352 335 331 303 287 283 278 278 278 277 244 251 257 301
136 132 128 130 126 123 113 91 63 60 87 101 98 173 195 217 83 64 57 89 359 35 91 56 43 90 5 86 214 85 5 245 224 228 210 238 291 317 312 307 303 299 294 291 275 270 273 276 277 288 286 243 239 264
121 99 115 128 123 118 111 72 37 66 53 70 79 114 331 96 89 24 17 102 254 101 47 56 105 57 263 160 75 218 158 220 244 208 222 223 247 260 265 279 274 267 275 282 289 284 289 286 286 286 285 244 257 272
93 87 141 130 117 95 71 74 47 44 107 79 290 263 126 126 174 170 188 198 155 87 189 114 127 213 54 56 248 200 207 213 198 245 235 220 235 260 257 268 276 279 288 288 284 282 280 282 284 286 272 283 282 278
75 136 133 126 103 64 34 55 79 82 126 234 130 244 187 158 159 219 202 156 132 164 111 218 138 128 204 194 247 244 251 249 221 228 242 247 251 268 275 282 291 286 290 291 286 282 282 282 282 277 267 278 296 270
133 135 129 118 116 104 98 346 102 145 217 205 225 145 145 220 251 107 138 133 83 147 85 34 173 216 233 221 218 266 276 223 281 304 296 286 263 268 277 278 275 282 280 282 286 285 287 280 280 287 268 279 284 212
136 137 138 135 23 87 76 309 70 101 186 233 80 142 175 194 194 130 163 162 174 189 219 219 222 220 205 238 182 212 231 227 198 286 294 288 257 257 260 265 276 284 289 293 281 269 278 288 276 268 262 277 216 205
94 102 66 62 46 59 129 144 1 188 217 153 241 121 241 29 105 145 206 192 152 223 250 229 243 252 239 254 227 232 264 248 263 235 270 287 286 224 267 275 271 281 285 296 293 298 305 293 293 283 284 234 197 196
97 89 84 39 71 10 55 288 152 233 93 234 20 111 133 275 237 217 163 175 227 225 224 238 248 254 255 255 260 235 246 251 259 259 258 260 278 289 282 275 300 297 301 303 295 296 296 293 291 284 253 185 131 128
86 66 64 86 82 70 257 47 82 261 109 267 27 14 300 282 232 96 202 212 234 227 229 235 243 233 246 260 263 258 247 250 264 261 257 252 253 254 269 277 233 302 302 298 288 293 293 292 285 254 188 163 146 146
55 82 125 156 120 217 292 187 312 61 34 89 144 260 256 219 161 75 232 237 246 244 208 235 225 251 270 259 252 252 253 202 245 267 249 252 271 272 220 281 298 293 275 289 291 298 287 280 161 126 139 156 181 181
88 240 135 179 161 130 153 266 194 83 224 217 154 285 265 107 157 238 224 262 261 250 248 253 239 236 237 253 265 262 265 187 228 251 262 200 239 289 294 292 293 293 285 283 285 300 257 255 235 223 207 206 207 205
183 214 186 186 223 146 187 169 203 211 172 191 229 245 59 108 113 244 237 234 237 225 228 209 205 222 256 209 229 258 246 204 151 185 268 211 213 254 292 299 300 292 240 263 310 309 279 251 259 245 238 228 222 211
219 220 207 209 162 132 22 276 153 126 175 197 230 200 137 198 238 246 261 239 215 230 207 192 173 187 220 242 237 246 209 169 181 217 221 235 251 243 245 265 281 280 295 283 286 291 286 270 263 251 234 227 223 212
212 159 176 210 195 171 180 182 177 204 219 221 99 176 189 198 226 230 218 234 210 205 223 235 221 228 243 251 242 144 300 253 260 264 280 275 269 257 264 269 274 286 293 282 278 283 272 262 257 250 237 226 217 197
231 255 118 201 220 189 208 201 215 220 205 154 177 229 241 227 224 218 253 222 219 217 252 269 274 266 250 251 230 210 223 235 276 284 281 282 332 299 288 297 295 296 285 274 274 276 282 284 283 275 262 235 207 159
246 177 170 193 186 215 228 188 220 235 215 220 204 304 319 283 246 196 226 268 282 268 249 236 229 199 240 240 252 273 356 26 359 324 341 258 250 280 299 315 325 324 336 357 3 332 332 319 314 331 48 79 99 102
182 89 60 199 221 237 238 237 275 205 214 237 239 237 257 264 347 43 35 345 325 338 11 353 29 28 14 16 358 337 191 21 37 39 12 307 315 332 341 330 326 325 343 11 19 11 0 1 21 43 54 61 63 64
113 193 183 255 270 263 247 204 232 226 249 225 257 239 300 109 236 68 6 357 36 44 21 14 17 359 340 311 29 63 84 92 51 27 20 355 346 339 330 335 341 343 347 15 18 15 18 22 7 5 53 87 78 81
316 318 295 326 330 318 288 103 280 273 294 244 250 241 221 176 232 99 41 24 58 26 347 318 304 312 311 14 93 98 88 77 56 41 37 37 27 11 359 351 344 342 0 39 30 42 49 48 42 45 60 69 69 67